User: anonymous   Login
Location: Asheville, NC
(35.6000°N, 82.5500°W)
Time: 22:46:47
(UTC-04:00)
Language:

N. Korean satellite - Orbit

View from above orbital plane
View from above orbital plane
View from above satellite
View from above satellite

Ground track
Ground track

The orbit data is extracted from the following two-line orbital elements,

1 39026U 12072A   18140.56254110 +.00001486 +00000-0 +58032-4 0  9991
2 39026 097.2112 151.8680 0040956 062.5120 298.0274 15.26670283301380
Epoch (UTC): 20 May 2018 13:30:03
Eccentricity: 0.0040956
inclination: 97.2112°
perigee height: 457 km
apogee height: 514 km
right ascension of ascending node: 151.8680°
argument of perigee: 62.5120°
revolutions per day: 15.26670283
mean anomaly at epoch: 298.0274°
orbit number at epoch: 30138

The dashed part of the orbit path shows where the satellite is in the earth's shadow,  

DLR